sat.trackr.live / text

‹ back to catalog

PATHFINDER 1

NORAD 41787 · 2016-059E

PAYLOAD ACTIVE UNKNOWN

§ Identity

Operator
Country
US
Launch date
2016-09-26
Launch site
SRILR
Launch vehicle
Mass (kg)
RCS (m²)
0.38

Purposes: earth_obs

External: N2YO · Heavens-Above · Gunter

§ Orbital elements

Epoch: 2026-05-25T05:29:38.032224Z

Period
98.12 min
Inclination
97.8167°
Eccentricity
0.0026944
Mean motion
14.67631674 rev/d
Perigee alt
649.7 km
Apogee alt
687.6 km
Semi-major
7,046.8 km
B*
1.0050e-4
RAAN
145.5420°
Arg perigee
280.1329°
Mean anomaly
79.6837°
Rev number
51,634

§ Raw data

PATHFINDER 11 41787U 16059E   26145.22891241  .00000527  00000+0  10050-3 0  99972 41787  97.8167 145.5420 0026944 280.1329  79.6837 14.67631674516342

JSON: /api/v1/satellites/41787 · /tle

For live sub-satellite position, see the globe view (requires WebGL).

§ Visibility from observer

Set your observer location to see the next 7 days of passes ≥ 10°. The values pass through the URL so the page stays shareable.

No JS? Fill the form by hand. The geolocation button needs JavaScript.